, CA

(GMT )
Point Mugu

Weather History for KNTD - August, 2014

Change the Weather History Date:

Sunday, August 31, 2014

  Actual Average Record
Temperature  
Mean Temperature 73 °F -  
Max Temperature 82 °F 71 °F 87 °F (2017)
Min Temperature 64 °F 57 °F 50 °F (2010)
Cooling Degree Days 8    
Growing Degree Days 23 (Base 50)    
Moisture  
Dew Point 63 °F    
Average Humidity 73    
Maximum Humidity 84    
Minimum Humidity 58    
Precipitation  
Precipitation 0.00 in - - ()
Sea Level Pressure  
Sea Level Pressure 29.80 in    
Wind  
Wind Speed 5 mph (SSW)    
Max Wind Speed 14 mph    
Max Gust Speed -    
Visibility 8 miles    
Events      
Averages and records for this station are not official NWS values.
T = Trace of Precipitation, MM = Missing Value Source: NWS Daily Summary

Daily Weather History Graph

Daily Weather History Graph

Search for Another Location

Airport or City:

Trip Planner

Search our weather history database for the weather conditions in past years. The results will help you decide how hot, cold, wet, or windy it might be!

Date:

Astronomy

Aug. 31, 2014 Rise Set
Actual Time 6:29 AM PDT 7:23 PM PDT
Civil Twilight 6:03 AM PDT 7:49 PM PDT
Nautical Twilight 5:33 AM PDT 8:19 PM PDT
Astronomical Twilight 5:02 AM PDT 8:50 PM PDT
Moon 12:04 PM PDT (8/31) 10:59 PM PDT (8/31)
Length of Visible Light 13h 45m
Length of Day
12h 54m
Waxing Crescent, 33% of the Moon is Illuminated
Aug 31
Waxing Crescent
Sep 2
First Quarter
Sep 8
Full
Sep 15
Last Quarter
Sep 23
New

Hourly Weather History & Observations

Time (PDT) Temp. Heat Index Dew Point Humidity Pressure Visibility Wind Dir Wind Speed Gust Speed Precip Events Conditions
12:56 AM 66.9 °F - 62.1 °F 84% 29.78 in 8.0 mi Calm Calm - N/A   Clear
1:56 AM 66.0 °F - 60.1 °F 81% 29.78 in 8.0 mi West 5.8 mph - N/A   Clear
2:56 AM 64.9 °F - 60.1 °F 84% 29.79 in 8.0 mi Calm Calm - N/A   Clear
3:56 AM 66.0 °F - 60.1 °F 81% 29.78 in 9.0 mi Calm Calm - N/A   Clear
4:56 AM 64.9 °F - 60.1 °F 84% 29.79 in 8.0 mi Calm Calm - N/A   Clear
5:56 AM 64.0 °F - 59.0 °F 84% 29.81 in 6.0 mi Calm Calm - N/A   Haze
6:56 AM 66.0 °F - 61.0 °F 84% 29.82 in 7.0 mi East 4.6 mph - N/A   Scattered Clouds
7:36 AM 69.1 °F - 62.1 °F 78% 29.82 in 8.0 mi Calm Calm - N/A   Scattered Clouds
7:45 AM 69.1 °F - 62.1 °F 78% 29.82 in 8.0 mi Calm Calm - N/A   Mostly Cloudy
7:56 AM 71.1 °F - 64.0 °F 78% 29.83 in 3.0 mi South 3.5 mph - N/A   Mostly Cloudy
8:08 AM 71.1 °F - 66.0 °F 84% 29.83 in 3.0 mi Calm Calm - N/A   Haze
8:56 AM 75.9 °F - 64.0 °F 67% 29.84 in 10.0 mi SSE 8.1 mph - N/A   Partly Cloudy
9:56 AM 79.0 °F - 66.0 °F 64% 29.85 in 8.0 mi SSE 10.4 mph - N/A   Mostly Cloudy
10:56 AM 79.0 °F - 66.9 °F 66% 29.86 in 6.0 mi South 13.8 mph - N/A   Haze
11:56 AM 81.0 °F 83.3 °F 66.9 °F 62% 29.85 in 10.0 mi South 11.5 mph - N/A   Scattered Clouds
12:56 PM 82.0 °F 84.5 °F 66.9 °F 60% 29.83 in 10.0 mi South 13.8 mph - N/A   Partly Cloudy
1:56 PM 82.9 °F 85.4 °F 66.9 °F 58% 29.82 in 10.0 mi South 13.8 mph - N/A   Partly Cloudy
2:56 PM 82.9 °F 85.8 °F 68.0 °F 60% 29.80 in 10.0 mi South 13.8 mph - N/A   Partly Cloudy
3:56 PM 82.0 °F 84.9 °F 68.0 °F 62% 29.77 in 10.0 mi South 13.8 mph - N/A   Scattered Clouds
4:56 PM 81.0 °F 83.8 °F 68.0 °F 65% 29.76 in 10.0 mi SSW 11.5 mph - N/A   Scattered Clouds
5:56 PM 78.1 °F - 63.0 °F 60% 29.76 in 10.0 mi SW 11.5 mph - N/A   Scattered Clouds
6:10 PM 75.9 °F - 62.1 °F 62% 29.76 in 10.0 mi WSW 11.5 mph - N/A   Mostly Cloudy
6:38 PM 73.9 °F - 62.1 °F 66% 29.75 in 10.0 mi WSW 9.2 mph - N/A   Scattered Clouds
6:56 PM 73.0 °F - 62.1 °F 68% 29.76 in 9.0 mi WSW 8.1 mph - N/A   Partly Cloudy
7:56 PM 70.0 °F - 62.1 °F 76% 29.76 in 9.0 mi WSW 5.8 mph - N/A   Partly Cloudy
8:13 PM 70.0 °F - 62.1 °F 76% 29.77 in 9.0 mi WSW 4.6 mph - N/A   Mostly Cloudy
8:50 PM 69.8 °F - 62.6 °F 78% 29.78 in 8.0 mi West 5.8 mph - N/A   Scattered Clouds
8:56 PM 69.1 °F - 62.1 °F 78% 29.78 in 8.0 mi West 4.6 mph - N/A   Scattered Clouds
9:56 PM 69.1 °F - 62.1 °F 78% 29.80 in 8.0 mi West 4.6 mph - N/A   Partly Cloudy
10:56 PM 70.0 °F - 62.1 °F 76% 29.81 in 8.0 mi WSW 4.6 mph - N/A   Mostly Cloudy
11:35 PM 71.1 °F - 62.1 °F 73% 29.80 in 9.0 mi Calm Calm - N/A   Overcast
11:56 PM 70.0 °F - 62.1 °F 76% 29.81 in 9.0 mi Calm Calm - N/A   Mostly Cloudy